星链-31916 (STARLINK-31916 )

导读

STARLINK-31916是美国SpaceX公司星链星座的成员卫星,于2024年5月18日成功发射入轨。星链项目旨在通过部署近地轨道卫星群,为全球偏远、缺乏传统网络基础设施的地区提供高速低延迟宽带互联网服务。STARLINK-31916的入轨进一步扩充了星链星座的服务覆盖能力,助力SpaceX推进全球卫星互联网组网,也加剧了近地轨道空间资源利用的竞争。

Basic Information
目录编号:
59795
目录名称:
STARLINK-31916
国际标识:
2024-093P
轨道中心:
EARTH
卫星名称:
星链-31916
卫星全名:
星链-31916 (STARLINK-31916 )
卫星状态:
在轨 (已飞行847 天)
发射日期:
2024-05-18 UTC
国别 :
美国 (US)
星等 :
--
This satellite is enrolled in the Space Conjunction Data Service (SCDS) and the current flight risk assessment level is: No High Risk
Orbit Information
数据来源 国际轨道数据
星历时间: 2026-09-11T15:27:10+0800
18小时前
查看轨道信息
半长轴: 6861.196km
偏心率: 0.0001288
轨道倾角: 43.001°
近地点辐角 269.660°
升交点赤经 240.613°
平近点角 90.410°
近地点: 482.175km
远地点: 483.943km
周期: 94.267分钟
每日圈数: 15.27577
Detailed Information
固有亮度:
5
最大亮度:
1.5
卫星平台:
Starlink v2.0 mini
覆盖范围:
全球
运营商:
太空探索技术公司
运营商所在国:
美国
制造商(研发单位):
太空探索技术公司
制造商所在国:
美国
使用方式:
暂无
Satellite Introduction
星链(Starlink)计划是由太空探索技术公司(SpaceX)提出的一个巨型低轨卫星互联网星座项目,计划在2019年至2024年间在太空搭建由约1.2万颗卫星组成的“星链”网络,其中1584颗将部署在地球上空550千米处的近地轨道,并从2020年开始工作。该卫星仍在工作。
2D Orbit Map
3D Orbit Map
Orbit Altitude Analysis Chart
Orbit Inclination Analysis Chart
Orbit Comprehensive Analysis Chart
View Comprehensive Chart
Conjunction Data List
Event ID Objects TCA Miss Dist (km) Collision Risk Probability Collision Risk Index (CRI) Action
CDM_260907-053905-979506-272723
OBJECT C (62727)
2026-09-07T
05:39:02+0000
2.538 km
极远距离
1.316099E-6 低风险 0.37
CDM_260913-173705-979506-309021
2026-09-13T
17:37:13+0000
2.904 km
极远距离
6.567836E-7 极低风险 0.31
Miss Distance Evolution Trend with All Objects
Collision Probability Evolution Trend with All Objects